Zurück zum Katalog

NIMBUS 2 DEB

AktivLEO
NORAD 28978·DEBRIS·🇺🇸 United States

Gestartet May 15, 1966 von Vandenberg Space Force Base

Loading…

Nächste Überflüge (nächste 24 Stunden)

TLE

AktuellSource: Space-Track

Epoche: Sep 14, 2026, 07:22 UTC

1 28978U 66040AP  26257.30759353  .00001371  00000-0  21242-2 0  9992
2 28978 100.3793 196.6189 0039602 163.8412 349.6716 13.52783532941979

Verfolge NIMBUS 2 DEB in Echtzeit mit AllMySat

Download on the App Store